Location: Newark
(49.9833°N, 3.7472°E)
Time: 14:52:01
(UTC+00:00)

Envisat - Visible Passes

Search period start: 17 September 2019 00:00
Search period end: 27 September 2019 00:00
Orbit: 764 x 766 km, 98.1° (Epoch: 17 September)

Date Brightness Start Highest point End Pass type
(mag) Time Alt. Az. Time Alt. Az. Time Alt. Az.
17 Sep 6.4 19:41:27 10° W 19:42:28 11° W 19:43:30 10° WNW visible
18 Sep 5.7 19:01:17 10° SW 19:05:11 22° W 19:09:06 10° NW visible
19 Sep 4.4 18:23:18 10° S 18:28:07 43° W 18:32:58 10° NNW visible
20 Sep 6.1 19:28:37 10° WSW 19:31:02 13° W 19:33:28 10° WNW visible
21 Sep 5.3 18:49:33 10° SSW 18:53:48 27° W 18:58:07 10° NW visible
22 Sep 4.0 18:11:51 10° S 18:16:48 53° W 18:21:48 10° NNW visible
23 Sep 5.9 19:16:26 10° SW 19:19:37 17° W 19:22:49 10° NW visible
24 Sep 5.0 18:37:55 10° SSW 18:42:27 32° W 18:47:02 10° NNW visible
25 Sep 3.6 18:00:28 10° S 18:05:30 65° WSW 18:10:36 10° NNW visible
26 Sep 5.8 19:04:30 10° SW 19:08:14 20° W 19:11:58 10° NW visible
